User: anonymous   Login
Location: Hamburg
(53.5500°N, 10.0000°E)
Time: 11:55:23
(UTC+01:00)
Language:

Iridium 10 - Orbit

View from above orbital plane
View from above orbital plane
View from above satellite
View from above satellite

Ground track
Ground track

The orbit data is extracted from the following two-line orbital elements,

1 24839U 97030D   15029.44108434  .00000453  00000-0  15455-3 0  1773
2 24839 086.3986 353.6343 0002243 101.3011 023.4232 14.34221309922292
Epoch (UTC): 29 January 2015 10:35:09
Eccentricity: 0.0002243
inclination: 86.3986°
perigee height: 776 km
apogee height: 779 km
right ascension of ascending node: 353.6343°
argument of perigee: 101.3011°
revolutions per day: 14.34221309
mean anomaly at epoch: 23.4232°
orbit number at epoch: 92229

The dashed part of the orbit path shows where the satellite is in the earth's shadow,  

DLR